Wind_Speed
30 29 29 28 29 29 30 30 28 26 23 20 19 19 20 19 20 21 22 25 26 27 30 30 30 32 32 31 30 29 28 28 27 29 29 30 30 32 34 36 37 37 38 40
30 28 26 25 26 29 31 31 30 27 24 22 22 23 23 22 22 23 24 24 22 22 24 24 24 24 26 28 28 29 30 31 31 31 31 31 32 35 38 40 42 43 43 43
28 25 23 23 23 24 27 27 27 26 23 22 23 24 24 23 22 22 22 21 19 20 20 21 21 23 25 28 29 30 31 32 33 34 33 33 34 38 42 44 46 48 48 48
27 25 23 21 20 21 24 24 23 22 21 19 20 21 21 20 18 19 19 19 18 19 19 19 20 22 23 25 27 28 30 31 33 34 34 34 37 40 45 48 50 52 52 53
26 24 22 20 18 18 20 21 20 20 18 17 17 17 15 15 15 16 17 18 18 19 20 20 21 23 24 25 26 27 27 28 29 31 33 35 37 42 46 49 52 54 55 57
25 23 21 19 18 17 17 18 18 17 17 17 17 17 14 14 15 17 18 20 20 21 22 24 25 27 28 30 31 32 32 33 33 35 36 39 41 44 47 50 53 55 57 59
25 22 20 18 16 15 15 15 15 16 16 17 17 17 16 17 18 20 23 24 26 27 28 29 31 33 34 36 37 38 39 40 41 42 43 44 46 48 51 53 55 57 58 59
24 21 20 18 16 14 14 14 15 16 16 16 18 18 20 22 24 27 29 31 32 34 35 36 37 38 39 40 40 41 43 43 44 46 48 51 53 55 56 57 58 59 61 61
23 20 19 17 16 15 16 17 17 18 19 20 22 23 24 27 29 32 34 35 37 38 38 39 39 39 39 40 40 41 43 44 45 47 48 51 53 54 55 56 59 61 62 63
23 21 21 20 19 19 20 21 22 24 26 28 28 28 28 31 32 37 40 41 41 41 39 38 38 39 40 41 42 44 47 48 49 50 51 52 53 55 56 57 59 60 62 64
25 24 24 23 23 22 24 25 27 30 31 32 33 26 26 28 31 36 39 40 40 41 43 43 45 46 48 49 51 53 54 54 54 54 53 52 53 55 56 58 59 61 63 64
26 24 24 25 26 27 28 30 31 32 32 33 36 27 27 31 35 39 42 43 44 46 48 50 51 52 53 54 54 53 52 50 49 50 51 52 54 57 60 62 63 64 66 67
24 23 23 26 27 29 31 34 35 35 36 35 40 31 32 36 41 45 47 48 49 50 52 53 52 50 50 49 48 46 47 49 51 53 55 57 59 61 63 65 67 69 72 72
17 19 22 24 27 30 32 34 34 36 37 41 40 37 34 39 45 47 49 50 50 50 49 47 46 45 45 46 47 49 52 53 54 56 57 58 60 63 65 67 70 72 75 76
18 20 23 25 28 32 33 33 32 36 36 42 40 42 41 46 49 47 48 49 50 50 49 49 48 48 49 50 51 51 52 53 53 55 57 58 60 61 63 65 68 71 74 77
20 22 24 24 27 31 35 32 33 36 39 43 45 45 43 45 47 48 48 48 50 51 54 55 54 53 53 53 53 52 51 51 51 51 52 54 56 59 61 64 66 69 71 74
24 26 30 31 32 35 39 35 36 37 40 42 43 45 46 45 47 48 51 52 53 55 56 57 58 58 58 59 58 57 55 54 54 54 54 55 57 59 60 62 63 66 69 72
24 26 28 31 28 29 34 34 36 37 38 42 45 47 49 51 52 53 54 55 55 56 56 56 57 58 60 61 61 61 60 60 59 58 58 59 60 60 61 61 62 63 64 66
24 27 31 33 34 33 36 42 45 45 44 47 50 53 56 57 59 59 57 57 57 55 56 58 60 62 63 63 62 62 61 61 62 61 60 60 62 62 62 62 62 63 63 64
27 31 34 37 41 43 43 46 50 54 54 56 58 59 60 61 61 62 60 59 57 57 57 59 62 63 64 64 63 62 62 62 62 62 63 64 64 65 64 64 64 64 64 64
32 37 41 45 49 50 50 55 58 60 62 66 67 66 65 64 63 61 59 58 58 59 60 61 62 63 65 66 66 65 63 63 63 64 65 67 67 68 68 68 68 67 66 65
40 46 49 52 54 55 58 62 65 68 71 73 73 73 71 70 68 66 64 61 60 61 63 64 65 66 65 65 64 64 64 65 66 66 67 69 71 72 72 70 68 67 67 67
45 49 54 55 58 59 63 68 70 71 72 72 73 73 72 73 72 71 70 68 67 67 68 68 67 66 63 62 62 63 66 67 68 69 71 73 74 75 74 71 68 66 66 66
52 54 57 59 60 62 69 74 75 76 75 76 76 75 75 75 76 78 78 75 72 72 71 68 64 62 60 62 63 67 70 71 73 75 77 78 77 75 72 69 65 63 62 61
57 61 62 64 64 68 71 72 74 77 79 78 77 74 71 70 71 71 70 69 69 70 67 61 58 59 61 64 68 72 77 80 81 81 80 78 75 71 68 65 62 60 60 59
64 65 68 69 70 76 77 79 78 75 75 75 74 73 72 70 68 67 67 67 65 62 59 58 60 63 66 71 75 80 83 85 84 80 75 73 71 69 66 64 62 60 58 56
Wind_Direction
180 185 189 193 201 207 213 215 214 210 208 207 202 206 221 226 234 243 251 255 259 261 261 263 264 266 269 270 270 270 269 267 269 271 271 267 261 259 262 267 275 280 284 288
178 182 185 192 199 206 210 212 214 214 214 218 224 228 231 238 246 252 254 256 257 258 260 262 263 265 267 268 268 267 267 267 269 269 268 264 258 258 261 266 271 277 283 288
175 178 182 188 196 204 205 205 207 213 217 226 234 239 241 243 247 246 245 246 248 253 257 260 263 264 264 265 266 266 266 266 267 270 272 269 263 263 265 269 273 276 280 283
174 179 180 180 185 191 195 198 202 210 218 225 234 240 241 240 239 238 243 249 255 260 266 270 272 273 272 272 272 271 270 268 266 266 265 263 261 261 264 268 272 275 279 282
177 181 179 173 174 177 185 191 198 206 210 213 225 232 230 236 239 243 250 255 260 266 270 272 273 274 274 274 274 273 271 270 270 270 268 266 264 264 267 271 275 278 281 283
182 184 182 178 177 179 183 193 198 204 207 211 222 232 237 246 253 259 263 267 271 273 276 278 278 277 276 276 276 276 276 276 276 274 273 273 274 275 276 277 279 281 283 286
186 185 184 182 185 188 193 200 207 210 213 220 227 237 246 250 258 266 271 274 277 280 281 282 282 280 278 276 275 274 274 275 276 276 277 277 277 277 279 280 281 282 284 286
194 193 193 193 195 201 209 216 225 229 230 233 237 245 251 257 261 264 267 270 273 276 277 277 276 276 276 277 277 277 277 279 280 282 283 283 283 282 281 281 281 282 283 284
202 204 206 209 213 218 227 235 239 248 249 253 257 260 261 262 265 267 267 269 272 274 277 278 279 280 282 283 283 283 283 284 284 285 285 285 284 283 283 282 281 280 281 281
210 215 222 225 229 236 244 251 259 261 262 262 261 268 276 274 275 272 273 274 276 278 282 287 291 292 290 287 286 285 284 284 284 285 283 282 281 281 281 281 282 281 281 281
215 224 232 237 243 249 253 257 261 264 265 269 270 273 277 282 279 280 280 281 287 292 295 296 294 291 289 289 289 288 287 286 285 283 282 282 281 281 281 279 278 279 280 280
221 229 240 247 251 255 258 262 265 272 275 276 279 283 289 291 291 290 291 293 295 296 295 293 291 291 291 290 288 287 284 282 281 280 279 279 279 279 280 280 280 280 280 279
229 239 250 257 262 264 268 270 273 279 284 291 289 295 297 298 296 294 293 294 295 294 291 291 291 290 289 288 287 285 283 282 282 280 280 279 278 277 277 278 279 279 279 280
238 251 258 267 271 270 275 279 285 290 297 292 293 296 294 292 288 289 291 293 293 292 291 290 289 289 287 286 286 286 286 284 282 281 279 278 276 275 275 275 275 275 276 278
248 262 265 272 276 277 280 285 294 295 297 294 293 291 291 290 290 290 289 290 291 292 291 291 291 289 288 288 287 286 284 283 282 281 280 279 277 275 272 272 272 273 274 274
267 267 270 276 284 288 289 293 293 291 289 291 292 293 291 292 292 292 292 292 292 293 292 292 292 291 290 290 289 288 286 285 285 283 282 280 278 276 275 275 274 273 272 272
281 286 284 283 287 285 284 287 286 285 287 289 289 290 290 288 287 288 289 291 292 290 290 291 293 294 294 294 294 294 293 293 292 290 289 287 285 283 282 280 277 276 275 274
270 271 275 275 275 275 282 285 288 291 290 288 287 287 287 289 289 289 289 290 291 292 294 294 294 294 294 295 296 296 296 296 295 294 293 292 291 290 288 286 284 281 279 277
277 280 279 279 280 279 282 290 295 293 289 289 289 289 291 291 291 291 292 292 293 295 296 296 295 295 295 295 295 295 295 294 294 293 292 292 292 291 290 288 287 285 282 280
289 291 290 290 289 287 292 295 296 298 296 296 294 292 292 292 293 293 295 295 295 297 297 296 296 297 297 296 294 293 293 292 293 294 294 295 295 295 294 292 290 288 285 283
297 299 298 296 294 296 300 300 299 297 299 300 299 298 298 298 298 299 300 300 300 300 298 298 299 300 299 298 296 294 293 292 293 293 295 295 296 296 296 295 293 291 288 286
299 298 297 295 295 297 299 299 298 299 300 300 300 301 301 301 301 301 301 301 300 300 300 300 300 299 298 297 295 293 291 291 292 293 295 296 297 297 296 294 291 289 288 285
293 293 292 294 296 299 302 300 300 300 299 299 299 299 298 297 297 297 297 298 299 300 300 300 298 296 294 293 293 293 293 293 294 296 297 297 297 295 293 291 288 285 285 284
291 293 295 297 299 302 300 299 300 300 300 299 299 298 297 295 294 293 293 294 294 295 295 295 294 294 294 295 296 296 296 296 297 297 297 295 293 291 288 286 285 283 283 285
296 297 300 297 297 295 295 297 297 297 298 299 299 298 296 294 293 293 292 292 293 294 294 294 294 294 295 296 298 299 299 299 299 298 296 294 291 288 285 282 280 280 281 284
298 301 299 296 296 296 297 297 297 297 297 297 297 296 294 293 292 291 291 292 292 292 292 294 296 297 298 300 301 301 301 301 301 299 296 293 291 288 284 280 277 276 278 281
Height
5789 5796 5799 5803 5808 5813 5817 5822 5826 5831 5835 5838 5840 5840 5838 5840 5842 5844 5846 5845 5844 5844 5842 5841 5841 5840 5840 5840 5839 5839 5838 5838 5835 5833 5832 5831 5830 5828 5827 5825 5822 5820 5817 5814
5788 5793 5797 5801 5805 5809 5813 5819 5824 5829 5833 5835 5836 5835 5835 5838 5839 5839 5839 5839 5839 5838 5837 5835 5835 5834 5834 5834 5834 5833 5832 5831 5828 5826 5824 5823 5821 5820 5817 5816 5814 5812 5810 5808
5786 5792 5795 5799 5802 5806 5811 5816 5821 5825 5829 5831 5830 5830 5831 5833 5834 5834 5834 5834 5833 5832 5831 5830 5829 5829 5828 5828 5827 5826 5824 5822 5821 5820 5819 5817 5816 5815 5812 5810 5807 5804 5801 5798
5785 5790 5793 5796 5800 5804 5808 5813 5818 5823 5826 5826 5826 5826 5827 5828 5829 5830 5829 5829 5828 5827 5826 5825 5825 5824 5824 5823 5821 5820 5818 5816 5814 5812 5810 5808 5807 5806 5803 5799 5796 5793 5790 5787
5785 5789 5793 5796 5800 5803 5807 5811 5816 5820 5822 5823 5822 5824 5826 5825 5825 5825 5824 5823 5822 5822 5821 5821 5820 5819 5818 5817 5816 5814 5811 5809 5806 5804 5802 5800 5798 5795 5793 5791 5788 5784 5781 5778
5785 5789 5793 5797 5800 5803 5806 5810 5814 5817 5820 5821 5820 5821 5823 5822 5822 5821 5820 5818 5818 5818 5817 5816 5815 5814 5813 5812 5810 5808 5806 5804 5801 5798 5796 5793 5791 5789 5787 5784 5780 5776 5773 5770
5784 5789 5793 5797 5800 5802 5805 5809 5813 5815 5818 5819 5818 5819 5821 5819 5818 5817 5815 5814 5813 5812 5811 5810 5808 5808 5806 5805 5803 5801 5798 5796 5793 5791 5788 5786 5784 5781 5778 5774 5770 5766 5762 5759
5785 5789 5793 5796 5799 5801 5803 5806 5810 5812 5814 5815 5815 5817 5817 5815 5813 5811 5809 5807 5806 5804 5802 5801 5800 5798 5796 5795 5793 5791 5788 5786 5784 5781 5778 5776 5773 5769 5765 5761 5757 5753 5749 5744
5784 5789 5792 5794 5796 5798 5800 5803 5805 5807 5808 5810 5810 5810 5811 5809 5807 5803 5801 5799 5798 5797 5795 5793 5790 5789 5787 5785 5783 5780 5777 5775 5772 5768 5764 5761 5758 5754 5750 5746 5742 5737 5733 5729
5783 5786 5789 5791 5793 5794 5796 5798 5800 5800 5800 5801 5803 5803 5802 5800 5797 5793 5791 5789 5788 5786 5785 5783 5781 5780 5777 5774 5772 5769 5766 5763 5758 5754 5750 5746 5742 5739 5735 5732 5728 5724 5719 5714
5780 5784 5786 5787 5788 5789 5791 5792 5791 5791 5792 5792 5793 5799 5796 5792 5789 5785 5783 5782 5781 5779 5776 5774 5771 5768 5764 5761 5758 5755 5751 5747 5742 5738 5734 5730 5726 5722 5719 5715 5711 5708 5704 5699
5777 5781 5782 5784 5784 5785 5785 5785 5784 5785 5783 5783 5783 5792 5789 5784 5781 5780 5777 5776 5773 5770 5766 5763 5759 5755 5752 5749 5745 5741 5736 5731 5727 5723 5719 5714 5710 5706 5702 5698 5694 5691 5688 5684
5775 5778 5779 5780 5783 5782 5781 5778 5778 5778 5777 5778 5774 5784 5782 5777 5773 5770 5768 5765 5761 5755 5751 5748 5745 5742 5739 5736 5732 5728 5722 5717 5714 5711 5706 5700 5694 5690 5685 5680 5676 5672 5668 5665
5773 5775 5777 5778 5776 5775 5775 5774 5774 5773 5772 5769 5769 5771 5773 5767 5762 5758 5754 5749 5745 5741 5738 5735 5733 5730 5727 5723 5719 5713 5707 5703 5698 5693 5688 5683 5678 5673 5669 5665 5661 5656 5651 5646
5770 5771 5772 5773 5771 5770 5770 5770 5771 5767 5763 5757 5758 5758 5757 5752 5749 5746 5741 5737 5732 5729 5726 5724 5721 5716 5712 5707 5701 5697 5692 5687 5682 5676 5670 5664 5659 5655 5650 5646 5641 5637 5632 5626
5763 5764 5765 5768 5766 5764 5763 5764 5762 5757 5753 5749 5745 5745 5744 5741 5737 5733 5729 5725 5721 5716 5712 5707 5702 5697 5693 5688 5683 5678 5674 5668 5662 5657 5651 5646 5641 5635 5631 5626 5620 5615 5611 5606
5754 5755 5754 5755 5755 5752 5751 5752 5749 5747 5743 5741 5738 5735 5731 5730 5727 5722 5717 5712 5708 5703 5697 5690 5683 5678 5672 5668 5665 5660 5654 5647 5641 5635 5631 5626 5620 5616 5611 5606 5601 5596 5591 5586
5748 5748 5748 5747 5747 5746 5745 5741 5738 5738 5737 5732 5728 5723 5718 5715 5711 5706 5700 5695 5691 5686 5679 5673 5667 5661 5656 5651 5645 5639 5633 5627 5620 5615 5610 5605 5600 5595 5591 5586 5580 5574 5569 5564
5742 5741 5741 5739 5737 5736 5735 5731 5727 5725 5724 5719 5714 5710 5705 5698 5693 5688 5683 5677 5672 5666 5660 5653 5646 5641 5637 5631 5624 5618 5611 5605 5599 5594 5588 5583 5579 5575 5570 5564 5558 5551 5546 5541
5735 5733 5731 5727 5722 5721 5722 5716 5711 5707 5704 5699 5696 5692 5687 5681 5677 5670 5665 5659 5653 5645 5639 5632 5626 5620 5614 5608 5601 5595 5589 5583 5577 5571 5567 5562 5557 5551 5546 5540 5534 5529 5523 5518
5723 5719 5717 5712 5706 5705 5706 5697 5693 5690 5688 5681 5674 5669 5664 5659 5653 5647 5640 5635 5630 5623 5617 5611 5605 5599 5592 5585 5579 5572 5566 5561 5556 5551 5546 5540 5533 5527 5521 5516 5510 5504 5499 5494
5712 5708 5703 5699 5696 5697 5691 5684 5679 5673 5666 5658 5651 5645 5638 5631 5627 5622 5616 5612 5608 5602 5595 5588 5582 5576 5570 5563 5558 5553 5547 5541 5536 5531 5525 5519 5511 5504 5497 5491 5486 5480 5475 5470
5701 5699 5692 5689 5686 5681 5673 5666 5660 5655 5648 5640 5634 5629 5622 5616 5611 5604 5598 5592 5586 5580 5574 5568 5563 5558 5551 5545 5538 5533 5527 5520 5515 5510 5504 5497 5489 5481 5473 5467 5463 5459 5453 5448
5687 5683 5678 5674 5671 5666 5656 5646 5639 5633 5628 5622 5615 5609 5602 5596 5590 5584 5578 5572 5565 5558 5552 5546 5542 5538 5532 5526 5519 5511 5504 5498 5494 5488 5481 5473 5465 5457 5450 5444 5440 5439 5435 5431
5671 5663 5661 5660 5653 5645 5639 5631 5624 5614 5606 5599 5594 5588 5582 5576 5570 5565 5559 5553 5547 5541 5534 5528 5522 5518 5513 5507 5501 5492 5482 5475 5468 5460 5452 5444 5437 5432 5428 5424 5422 5420 5418 5414
5656 5648 5639 5638 5629 5621 5620 5610 5603 5595 5587 5581 5576 5570 5564 5558 5553 5547 5540 5533 5526 5520 5515 5510 5504 5499 5492 5486 5478 5468 5457 5448 5439 5432 5424 5417 5411 5407 5404 5403 5403 5401 5400 5399